This demonstration page uses our WeatherBlox Daily Observations layout. Learn more.

Left ArrowRight Arrow

Hourly Observations for October 9, 2021

Temp ( °F °C ) Dew Point ( °F °C ) Humidity (%) Winds ( mph kmh ) Pressure ( in mb ) Visibility ( mi km ) Precip ( " mm )
12:53 am 00:53 Clear 65 18.3 63 17.2 93 93 Calm 30.04 1017 10 16 0.00 0.00
1:53 am 01:53 Clear 63 17.2 61 16.1 93 93 Calm 30.04 1017 10 16 0.00 0.00
2:53 am 02:53 Clear 63 17.2 62 16.7 97 97 Calm 30.03 1017 10 16 0.00 0.00
3:53 am 03:53 Clear 62 16.7 61 16.1 96 96 Calm 30.03 1017 9 14 0.00 0.00
4:53 am 04:53 Clear 64 17.8 62 16.7 93 93 Calm 30.02 1017 10 16 0.00 0.00
5:53 am 05:53 Partly Cloudy 61 16.1 60 15.6 97 97 Calm 30.02 1017 7 11 0.00 0.00
6:53 am 06:53 Clear 61 16.1 60 15.6 97 97 Calm 30.02 1017 8 13 0.00 0.00
7:20 am 07:20 Partly Cloudy 61 16.1 60 15.6 97 97 Calm 30.04 1017 10 16 0.00 0.00
7:30 am 07:30 Mostly Cloudy 61 16.1 60 15.6 97 97 Calm 30.04 1017 9 14 0.00 0.00
7:53 am 07:53 Cloudy 63 17.2 62 16.7 97 97 Calm 30.04 1017 10 16 0.00 0.00
8:40 am 08:40 Cloudy with Fog 64 17.8 64 17.8 100 100 Calm 30.06 1018 1 1 0.00 0.00
8:53 am 08:53 Cloudy with Fog 65 18.3 65 18.3 100 100 Calm 30.06 1018 1 1 0.00 0.00
9:00 am 09:00 Cloudy with Mist and Fog 65 18.3 65 18.3 100 100 Calm 30.06 1018 1 2 0.00 0.00
9:53 am 09:53 Cloudy with Mist and Fog 66 18.9 65 18.3 96 96 Calm 30.06 1018 1 2 0.00 0.00
10:00 am 10:00 Cloudy 66 18.9 65 18.3 96 96 Calm 30.06 1018 10 16 0.00 0.00
10:10 am 10:10 Cloudy 67 19.4 66 18.9 97 97 Calm 30.06 1018 10 16 0.00 0.00
10:39 am 10:39 Partly Cloudy 70 21.1 65 18.3 84 84 Calm 30.05 1018 10 16 0.00 0.00
10:53 am 10:53 Sunny 71 21.7 66 18.9 84 84 Calm 30.06 1018 10 16 0.00 0.00
11:16 am 11:16 Mostly Cloudy 73 22.8 66 18.9 79 79 Calm 30.05 1018 10 16 0.00 0.00
11:46 am 11:46 Partly Cloudy 76 24.4 65 18.3 69 69 N 5 7 30.03 1017 10 16 0.00 0.00
11:53 am 11:53 Mostly Sunny 77 25 64 17.8 64 64 VRB 6 9 30.05 1018 10 16 0.00 0.00
12:53 pm 12:53 Sunny 79 26.1 63 17.2 58 58 NNE 7 11 30.04 1017 10 16 0.00 0.00
1:53 pm 13:53 Sunny 81 27.2 63 17.2 54 54 NNW 8 13 30.00 1016 10 16 0.00 0.00
2:53 pm 14:53 Mostly Cloudy 82 27.8 63 17.2 53 53 VRB 6 9 29.98 1015 10 16 0.00 0.00
3:53 pm 15:53 Partly Cloudy 81 27.2 62 16.7 53 53 N 7 11 29.96 1015 10 16 0.00 0.00
4:53 pm 16:53 Mostly Sunny 83 28.3 61 16.1 48 48 NNW 7 11 29.95 1014 10 16 0.00 0.00
5:53 pm 17:53 Mostly Sunny 82 27.8 62 16.7 51 51 NNW 7 11 29.96 1015 10 16 0.00 0.00
6:12 pm 18:12 Mostly Sunny 82 27.8 62 16.7 51 51 NNW 3 6 29.94 1014 10 16 0.00 0.00
6:53 pm 18:53 Sunny 78 25.6 63 17.2 60 60 NNW 3 6 29.97 1015 10 16 0.00 0.00
7:53 pm 19:53 Clear 74 23.3 64 17.8 71 71 Calm 29.98 1015 10 16 0.00 0.00
8:53 pm 20:53 Clear 70 21.1 64 17.8 82 82 Calm 30.00 1016 10 16 0.00 0.00
9:53 pm 21:53 Clear 67 19.4 65 18.3 93 93 Calm 30.00 1016 10 16 0.00 0.00
10:53 pm 22:53 Clear 67 19.4 65 18.3 93 93 Calm 30.01 1016 10 16 0.00 0.00
11:53 pm 23:53 Clear 67 19.4 64 17.8 91 91 Calm 30.00 1016 10 16 0.00 0.00

Powered by AerisWeather